BLUE7 KSUS-KBOS

Flight info

Callsign BLUE7
Flight time N/A
Altitude 41000
Route GATWY1 ROD DUTSH WWSHR JHW Q82 PONCT JFUND2
Aircraft C750/M-VGDW/C

Departure

Time 2026-05-08 00:48
Airport Spirit of St Louis Airport (KSUS)

Arrival

Time N/A
Airport Boston Logan International Airport (KBOS)
Time Latitude Longitude Altitude Speed Heading
2026-05-08 00:38 38.66233 -90.64482 460 ft 0 kts 81°
2026-05-08 00:45 38.66233 -90.64481 460 ft 0 kts 82°
2026-05-08 00:45 38.66222 -90.64448 460 ft 10 kts 147°
2026-05-08 00:46 38.66151 -90.64378 460 ft 14 kts 95°
2026-05-08 00:46 38.66172 -90.64214 460 ft 26 kts 76°
2026-05-08 00:46 38.66223 -90.63920 460 ft 35 kts 75°
2026-05-08 00:46 38.66255 -90.63709 459 ft 24 kts 79°
2026-05-08 00:47 38.66274 -90.63558 458 ft 6 kts 105°
2026-05-08 00:47 38.66243 -90.63522 458 ft 3 kts 158°
2026-05-08 00:47 38.66188 -90.63526 459 ft 17 kts 227°
2026-05-08 00:47 38.66113 -90.63887 460 ft 85 kts 257°
2026-05-08 00:48 38.65939 -90.64992 616 ft 152 kts 256°
2026-05-08 00:48 38.65675 -90.66454 1218 ft 194 kts 254°
2026-05-08 00:48 38.65363 -90.68031 2441 ft 184 kts 254°
2026-05-08 00:48 38.65074 -90.69654 3236 ft 194 kts 256°
2026-05-08 00:49 38.64329 -90.71066 4039 ft 205 kts 212°
2026-05-08 00:49 38.62926 -90.71320 4851 ft 215 kts 169°
2026-05-08 00:49 38.61512 -90.70406 5045 ft 242 kts 149°
2026-05-08 00:49 38.60143 -90.69033 5112 ft 258 kts 127°
2026-05-08 00:50 38.59645 -90.66965 5853 ft 240 kts 89°
2026-05-08 00:50 38.59675 -90.64928 6481 ft 224 kts 88°
2026-05-08 00:50 38.59689 -90.63014 7074 ft 208 kts 88°
2026-05-08 00:50 38.59678 -90.61228 7669 ft 199 kts 88°
2026-05-08 00:51 38.59788 -90.59469 8335 ft 198 kts 62°
2026-05-08 00:51 38.60440 -90.57990 9051 ft 195 kts 57°
2026-05-08 00:51 38.60917 -90.56358 9741 ft 200 kts 68°
2026-05-08 00:51 38.61272 -90.54636 10411 ft 208 kts 69°
2026-05-08 00:52 38.61638 -90.52685 10817 ft 244 kts 72°
2026-05-08 00:52 38.62009 -90.50481 11567 ft 263 kts 73°
2026-05-08 00:52 38.62387 -90.48184 12382 ft 278 kts 72°
2026-05-08 00:52 38.62835 -90.45509 12423 ft 327 kts 74°
2026-05-08 00:53 38.63322 -90.42531 12881 ft 355 kts 74°
2026-05-08 00:53 38.63835 -90.39397 13854 ft 364 kts 74°
2026-05-08 00:53 38.64357 -90.36262 14921 ft 369 kts 73°
2026-05-08 00:53 38.64897 -90.33003 15867 ft 377 kts 74°
2026-05-08 00:54 38.65439 -90.29717 16789 ft 384 kts 74°
2026-05-08 00:54 38.65992 -90.26368 17637 ft 392 kts 74°
2026-05-08 00:54 38.66554 -90.22930 18517 ft 398 kts 73°
2026-05-08 00:54 38.67135 -90.19436 19320 ft 406 kts 74°
2026-05-08 00:55 38.67716 -90.15861 20093 ft 414 kts 74°
2026-05-08 00:55 38.68312 -90.12220 20868 ft 421 kts 74°
2026-05-08 00:55 38.68911 -90.08541 21621 ft 428 kts 74°
2026-05-08 00:55 38.69536 -90.04778 22364 ft 435 kts 74°
2026-05-08 00:56 38.70147 -90.01000 23089 ft 441 kts 74°
2026-05-08 00:56 38.70778 -89.97109 23807 ft 448 kts 74°
2026-05-08 00:56 38.71406 -89.93213 24484 ft 455 kts 73°
2026-05-08 00:56 38.72050 -89.89214 25145 ft 462 kts 74°
2026-05-08 00:57 38.72702 -89.85200 25768 ft 468 kts 74°
2026-05-08 00:57 38.73357 -89.81094 26381 ft 474 kts 74°
2026-05-08 00:57 38.74026 -89.76923 26954 ft 482 kts 74°
2026-05-08 00:57 38.74696 -89.72723 27571 ft 487 kts 75°
2026-05-08 00:58 38.75386 -89.68398 28131 ft 494 kts 74°
2026-05-08 00:58 38.76073 -89.64067 28718 ft 499 kts 74°
2026-05-08 00:58 38.76756 -89.59741 29287 ft 504 kts 74°
2026-05-08 00:58 38.77457 -89.55325 29810 ft 510 kts 74°
2026-05-08 00:59 38.78168 -89.50836 30321 ft 516 kts 74°
2026-05-08 00:59 38.78880 -89.46344 30792 ft 521 kts 74°
2026-05-08 00:59 38.79599 -89.41731 31289 ft 527 kts 74°
2026-05-08 00:59 38.80318 -89.37137 31724 ft 532 kts 74°
2026-05-08 01:00 38.81057 -89.32429 32141 ft 538 kts 75°
2026-05-08 01:00 38.81791 -89.27730 32545 ft 544 kts 76°
2026-05-08 01:00 38.82528 -89.22938 32707 ft 555 kts 76°
2026-05-08 01:00 38.83294 -89.17995 33040 ft 561 kts 76°
2026-05-08 01:01 38.84051 -89.13123 33485 ft 564 kts 76°
2026-05-08 01:01 38.84714 -89.08144 34047 ft 565 kts 79°
2026-05-08 01:01 38.85334 -89.03126 34605 ft 565 kts 78°
2026-05-08 01:01 38.85949 -88.98138 35153 ft 563 kts 78°
2026-05-08 01:02 38.86561 -88.93175 35632 ft 563 kts 78°
2026-05-08 01:02 38.87172 -88.88263 36125 ft 563 kts 78°
2026-05-08 01:02 38.87791 -88.83229 36656 ft 563 kts 79°
2026-05-08 01:02 38.88407 -88.78244 37093 ft 565 kts 79°
2026-05-08 01:03 38.89014 -88.73236 37576 ft 565 kts 78°
2026-05-08 01:03 38.89613 -88.68300 38067 ft 565 kts 78°
2026-05-08 01:03 38.90219 -88.63285 38548 ft 565 kts 79°
2026-05-08 01:03 38.90824 -88.58276 39001 ft 564 kts 79°
2026-05-08 01:04 38.91422 -88.53339 39543 ft 562 kts 79°
2026-05-08 01:04 38.92073 -88.48400 40068 ft 557 kts 72°
2026-05-08 01:04 38.93245 -88.43729 40655 ft 547 kts 64°
2026-05-08 01:04 38.94583 -88.39114 40982 ft 549 kts 64°
2026-05-08 01:05 38.95906 -88.34450 40999 ft 557 kts 65°
2026-05-08 01:05 38.98574 -88.24937 41003 ft 573 kts 66°
2026-05-08 01:06 39.01305 -88.15140 41007 ft 588 kts 66°
2026-05-08 01:06 39.04112 -88.05042 41009 ft 603 kts 66°
2026-05-08 01:07 39.06959 -87.94776 40999 ft 614 kts 66°
2026-05-08 01:07 39.09832 -87.84347 41001 ft 620 kts 66°
2026-05-08 01:08 39.12722 -87.73828 41004 ft 622 kts 66°
2026-05-08 01:08 39.15602 -87.63302 41007 ft 621 kts 66°
2026-05-08 01:09 39.18470 -87.52783 41008 ft 617 kts 66°
2026-05-08 01:09 39.21292 -87.42379 41007 ft 615 kts 66°
2026-05-08 01:10 39.24126 -87.31896 40998 ft 615 kts 67°
2026-05-08 01:10 39.26915 -87.21523 40989 ft 614 kts 67°
2026-05-08 01:11 39.29723 -87.11053 41000 ft 613 kts 67°
2026-05-08 01:11 39.32511 -87.00629 40982 ft 613 kts 67°
2026-05-08 01:12 39.35307 -86.90105 40991 ft 613 kts 67°
2026-05-08 01:12 39.38063 -86.79688 40991 ft 613 kts 67°
2026-05-08 01:13 39.40818 -86.69233 40996 ft 613 kts 67°
2026-05-08 01:13 39.43572 -86.58752 41003 ft 613 kts 67°
2026-05-08 01:14 39.46316 -86.48228 41008 ft 613 kts 67°
2026-05-08 01:14 39.49050 -86.37766 40997 ft 613 kts 67°
2026-05-08 01:15 39.51770 -86.27247 40990 ft 612 kts 68°
2026-05-08 01:15 39.54480 -86.16744 40999 ft 612 kts 68°
2026-05-08 01:16 39.57193 -86.06205 40992 ft 612 kts 68°
2026-05-08 01:16 39.59869 -85.95740 41000 ft 612 kts 68°
2026-05-08 01:17 39.62564 -85.85149 41010 ft 612 kts 68°
2026-05-08 01:17 39.65981 -85.75183 41009 ft 604 kts 58°
2026-05-08 01:18 39.69721 -85.65341 40994 ft 605 kts 58°
2026-05-08 01:18 39.73442 -85.55441 41003 ft 604 kts 58°
2026-05-08 01:19 39.77145 -85.45566 41005 ft 605 kts 58°
2026-05-08 01:19 39.80817 -85.35753 41008 ft 606 kts 59°
2026-05-08 01:20 39.84515 -85.25826 40987 ft 605 kts 59°
2026-05-08 01:20 39.88196 -85.15910 40980 ft 604 kts 59°
2026-05-08 01:21 39.91853 -85.06033 40986 ft 605 kts 59°
2026-05-08 01:21 39.95522 -84.96086 40972 ft 605 kts 59°
2026-05-08 01:22 39.99189 -84.86108 40983 ft 604 kts 59°
2026-05-08 01:22 40.02811 -84.76224 40978 ft 604 kts 59°
2026-05-08 01:23 40.06443 -84.66267 40974 ft 604 kts 59°
2026-05-08 01:23 40.10064 -84.56308 40988 ft 603 kts 59°
2026-05-08 01:24 40.13673 -84.46355 41002 ft 603 kts 59°
2026-05-08 01:24 40.17278 -84.36391 40992 ft 602 kts 59°
2026-05-08 01:25 40.20870 -84.26410 40973 ft 601 kts 60°
2026-05-08 01:25 40.24439 -84.16464 40980 ft 600 kts 60°
2026-05-08 01:26 40.27997 -84.06522 40978 ft 600 kts 60°
2026-05-08 01:26 40.30138 -84.01901 40969 ft 586 kts 46°
2026-05-08 01:26 40.32653 -83.97674 40981 ft 586 kts 46°
2026-05-08 01:27 40.37655 -83.89146 40988 ft 586 kts 46°
2026-05-08 01:27 40.42617 -83.80631 40990 ft 586 kts 46°
2026-05-08 01:28 40.47615 -83.72038 40986 ft 586 kts 46°
2026-05-08 01:28 40.52368 -83.63206 40991 ft 589 kts 49°
2026-05-08 01:29 40.57079 -83.54326 40978 ft 590 kts 49°
2026-05-08 01:29 40.61775 -83.45458 40983 ft 589 kts 49°
2026-05-08 01:30 40.66502 -83.36499 40985 ft 589 kts 49°
2026-05-08 01:30 40.71170 -83.27636 40967 ft 589 kts 50°
2026-05-08 01:31 40.75893 -83.18639 40969 ft 589 kts 50°
2026-05-08 01:31 40.80546 -83.09737 40978 ft 588 kts 50°
2026-05-08 01:32 40.85239 -83.00748 40969 ft 588 kts 50°
2026-05-08 01:32 40.89897 -82.91801 40967 ft 588 kts 50°
2026-05-08 01:33 40.94532 -82.82863 40969 ft 588 kts 50°
2026-05-08 01:33 40.99166 -82.73906 40972 ft 588 kts 50°
2026-05-08 01:34 41.03817 -82.64893 40979 ft 588 kts 50°
2026-05-08 01:34 41.08478 -82.55828 40974 ft 588 kts 50°
2026-05-08 01:35 41.13097 -82.46820 40959 ft 589 kts 50°
2026-05-08 01:35 41.17699 -82.37814 40970 ft 588 kts 50°
2026-05-08 01:36 41.22312 -82.28773 40958 ft 588 kts 51°
2026-05-08 01:36 41.26898 -82.19750 40965 ft 587 kts 51°
2026-05-08 01:37 41.31462 -82.10754 40960 ft 587 kts 51°
2026-05-08 01:37 41.35557 -82.01216 41012 ft 594 kts 63°
2026-05-08 01:38 41.38808 -81.91052 40973 ft 596 kts 63°
2026-05-08 01:38 41.42062 -81.80859 40966 ft 595 kts 63°
2026-05-08 01:39 41.45298 -81.70671 40970 ft 595 kts 63°
2026-05-08 01:39 41.48542 -81.60418 40974 ft 595 kts 63°
2026-05-08 01:40 41.51766 -81.50217 40973 ft 594 kts 64°
2026-05-08 01:40 41.54972 -81.40008 40970 ft 594 kts 63°